Location: Becedillas
(40.5382°N, 5.3256°W)
Time: 01:10:49
(UTC+00:00)

Daily predictions for brighter satellites

Satellite Brightness Start Highest point End
(mag) Time Altitude Azimuth Time Altitude Azimuth Time Altitude Azimuth
Cosmos 304 Rocket 3.8 00:06:24 74° NW 00:06:24 74° NW 00:11:04 10° NNE
Cosmos 1892 4.4 00:09:05 25° NE 00:09:05 25° NE 00:10:54 10° NNE
Cosmos 332 Rocket 4.4 00:09:47 47° E 00:09:47 47° E 00:13:56 10° NNE
SL-12 R/B(2) 4.4 00:09:26 44° SE 00:11:05 49° ESE 00:19:43 10° NE
Cosmos 773 Rocket 3.8 00:05:58 10° NNW 00:11:08 81° ENE 00:11:17 80° E
CENTAUR R/B 2.9 00:12:18 40° ESE 00:12:18 40° ESE 00:18:00 10° NE
Cosmos 2208 Rocket 4.5 00:07:58 10° NNW 00:12:44 46° W 00:12:44 46° W
Cosmos 1980 3.7 00:10:11 10° NNW 00:15:52 70° ENE 00:16:41 61° ESE
Cosmos 2181 Rocket 3.9 00:09:42 10° N 00:15:54 75° E 00:16:56 61° SE
Cosmos 1503 Rocket 4.1 00:19:45 62° WSW 00:20:17 66° WNW 00:25:35 10° NNE
Cosmos 1777 Rocket 3.9 00:21:13 74° WSW 00:21:31 78° WNW 00:26:49 10° NNE
GEOS 3 Rocket 3.5 00:17:01 10° NE 00:22:02 70° ESE 00:22:02 70° ESE
H-2A R/B 2.4 00:20:31 10° NNE 00:24:02 59° NNE 00:24:02 59° NNE
Cosmos 2297 Rocket 2.3 00:24:23 56° WSW 00:25:17 66° WNW 00:30:56 10° NNE
Cosmos 2074 Rocket 4.0 00:24:31 58° SE 00:25:28 67° E 00:31:38 10° NNE
SL-4 R/B 3.1 00:21:47 10° NW 00:25:45 43° NNE 00:26:25 40° NE
Cosmos 2219 4.0 00:27:36 35° ESE 00:27:36 35° ESE 00:32:38 10° NE
Cosmos 2084 Rocket 3.9 00:29:51 58° N 00:29:51 58° N 00:33:18 10° NNE
Cosmos 2151 Rocket 3.8 00:25:19 10° N 00:29:10 67° N 00:29:10 67° N
ALOS 2 3.8 00:30:59 32° WNW 00:30:59 32° WNW 00:34:16 10° NNW
Meteor 2-5 Rocket 4.4 00:34:28 42° WSW 00:35:38 48° WNW 00:41:18 10° N
Okean 2 Rocket 3.2 00:32:03 10° N 00:36:03 71° N 00:36:03 71° N
Cosmos 1674 Rocket 3.9 00:41:51 59° NW 00:41:51 59° NW 00:45:40 10° N
Cosmos 1825 3.6 00:42:47 33° N 00:42:47 33° N 00:44:48 10° N
Cosmos 1378 Rocket 4.2 00:43:13 49° NW 00:43:13 49° NW 00:47:03 10° N
COSMOS 2428 4.0 00:40:53 10° NW 00:45:16 27° W 00:45:16 27° W
Cosmos 2219 Rocket 4.5 00:45:17 10° W 00:46:32 11° W 00:46:32 11° W
Cosmos 1025 Rocket 3.5 00:50:34 55° ENE 00:50:34 55° ENE 00:54:21 10° NNE
Cosmos 2221 Rocket 4.0 00:51:16 55° WNW 00:51:16 55° WNW 00:55:17 10° N
NOSS 3-2 (A) 3.3 00:56:57 55° ESE 00:56:57 55° ESE 01:02:34 10° NE
BREEZE-M DEB (TANK) 4.0 00:51:08 10° WNW 00:57:07 34° N 00:58:59 17° ENE
Cosmos 2263 Rocket 2.6 00:58:49 45° ESE 00:59:12 45° ESE 01:04:30 10° NE
CZ-4C R/B 3.6 00:58:01 18° W 01:00:20 26° NW 01:04:59 10° NNE
Cosmos 1295 Rocket 4.4 00:59:17 61° SW 01:00:20 76° W 01:06:29 10° N
Sich 1 Rocket 4.3 00:56:13 10° NNW 00:59:44 43° WNW 00:59:44 43° WNW
Resurs 1-4 Rocket 4.3 00:58:45 10° ENE 01:01:31 14° E 01:03:09 13° ESE
Cosmos 1898 Rocket 4.2 01:01:19 40° ESE 01:01:33 40° ESE 01:06:22 10° NE
NOSS 3-2 (C) 4.4 01:03:08 25° ESE 01:03:10 25° ESE 01:07:41 10° ENE
Nadezhda 3 Rocket 3.9 00:58:30 10° N 01:04:48 83° E 01:06:12 57° SSE
Cosmos 2184 Rocket 4.3 01:08:24 48° SW 01:09:47 58° W 01:16:04 10° N
Helios 1A Rocket 3.8 01:12:04 38° ENE 01:12:04 38° ENE 01:15:35 10° N
Cosmos 1461 4.4 01:14:31 26° E 01:14:31 26° E 01:16:56 10° NE
Meteor 2-11 Rocket 4.4 01:14:51 58° SW 01:16:02 74° W 01:22:07 10° N
Nimbus 7 Rocket 4.4 01:13:02 10° NNE 01:19:08 84° WNW 01:20:30 57° SSW
Cosmos 2154 Rocket 4.3 01:25:11 44° WSW 01:26:36 52° WNW 01:32:43 10° N
Cosmos 967 Rocket 4.5 01:25:58 51° SW 01:27:44 83° WNW 01:34:16 10° NNE
In-Cosmos 22 Rocket 4.2 01:29:58 56° S 01:31:13 80° E 01:37:04 10° NNE
Cosmos 2327 Rocket 4.4 01:30:24 55° SSW 01:31:48 78° W 01:37:56 10° N
Okean 1 Rocket 4.4 01:33:31 10° NNW 01:36:40 28° WNW 01:36:40 28° WNW
SL-16 R/B 2.1 01:33:49 10° NNW 01:39:33 87° WSW 01:41:09 50° SSE
Cosmos 292 Rocket 3.9 01:43:03 56° W 01:43:34 60° WNW 01:48:20 10° NNE
SL-8 Rocket 3.9 01:43:18 46° S 01:45:15 80° E 01:51:27 10° N
Cosmos 2237 Rocket 3.7 01:42:11 10° NW 01:45:46 21° W 01:45:46 21° W
Cosmos 1869 3.8 01:42:58 10° N 01:46:33 48° E 01:46:40 48° E
Cosmos 2082 3.6 01:45:35 53° SW 01:46:54 77° WNW 01:52:32 10° NNE
Cosmos 1544 Rocket 4.2 01:44:27 10° N 01:48:48 49° E 01:49:57 39° SE
Cosmos 2227 Rocket 3.6 01:47:07 21° W 01:49:24 28° NW 01:54:14 10° N
IDEFIX/ARIANE 42P 2.9 01:48:31 10° NNE 01:53:42 58° E 01:55:13 42° SSE
Cosmos 2228 4.0 01:50:14 10° N 01:54:19 40° ENE 01:55:50 29° SE
Cosmos 1943 4.4 01:49:10 10° N 01:54:25 39° ENE 01:59:38 10° SE
CZ-2C R/B 3.6 01:51:20 18° SE 01:54:52 43° ENE 01:59:55 10° N
SL-24 R/B 4.5 01:54:10 55° SSW 01:55:13 74° W 02:00:45 10° N
CZ-2C R/B 4.1 01:53:43 10° NNE 01:58:41 37° E 02:00:50 26° SE
Cosmos 1975 Rocket 3.5 01:58:43 45° W 01:58:53 45° WNW 02:03:06 10° N
Meteor 1-11 4.2 01:57:52 48° SSW 01:59:31 75° W 02:05:21 10° N
CZ-2D R/B 2.7 01:56:37 10° NNE 02:01:46 48° E 02:03:47 32° SSE
CENTAUR R/B 3.6 01:59:25 21° W 02:02:39 37° NW 02:09:03 10° NNE
SL-4 R/B 4.4 02:00:37 10° WNW 02:01:05 13° WNW 02:01:05 13° WNW
Cosmos 1959 Rocket 4.4 02:03:07 40° S 02:05:34 90° W 02:11:57 10° N
COBE Rocket 4.0 02:03:03 10° N 02:08:13 74° WNW 02:09:38 48° SSW
USA 238 DEB 4.0 02:06:34 33° SSE 02:08:52 47° ESE 02:15:05 10° NE
USA 238 4.0 02:06:36 32° SSE 02:08:55 46° ESE 02:15:07 10° NE
H-2A R/B 3.3 02:07:28 10° NNE 02:11:28 74° ESE 02:12:02 61° SSE
Cosmos 2219 4.3 02:09:29 25° W 02:11:41 33° WNW 02:16:43 10° N
Cosmos 858 Rocket 4.4 02:11:49 48° SSW 02:13:18 78° WNW 02:18:33 10° NNE
Cosmos 1455 Rocket 4.2 02:10:56 10° NNW 02:14:37 28° W 02:14:37 28° W
Cosmos 2341 Rocket 4.2 02:13:09 38° SW 02:15:19 56° W 02:21:26 10° N
NPP 3.6 02:12:50 10° NNE 02:18:16 87° WNW 02:20:16 40° SSW
Cosmos 1867 4.0 02:18:38 34° S 02:20:36 51° ESE 02:25:54 10° NE
Cosmos 2227 4.2 02:18:50 39° S 02:21:04 78° ESE 02:26:50 10° NNE
Cosmos 1536 Rocket 3.5 02:27:08 46° S 02:28:26 87° WNW 02:32:53 10° N
ADEOS II 2.5 02:23:46 10° NNE 02:28:56 57° E 02:31:42 27° S
Cosmos 1900 4.4 02:28:54 40° SW 02:30:44 74° WNW 02:35:52 10° NNE
Cosmos 1844 4.5 02:27:53 24° SSE 02:30:56 46° ESE 02:36:26 10° NE
Cosmos 923 Rocket 4.2 02:30:25 10° NNW 02:35:28 49° WSW 02:37:05 36° SSW
Cosmos 1606 3.6 02:35:08 10° NNW 02:38:01 30° W 02:38:01 30° W
Cosmos 1937 Rocket 4.5 02:38:13 26° WSW 02:40:17 35° WNW 02:45:06 10° N
Resurs 1-4 Rocket 2.1 02:36:30 10° N 02:41:45 69° WNW 02:44:12 32° SSW
Cosmos 2263 Rocket 3.6 02:40:29 18° W 02:43:17 26° NW 02:47:56 10° N
Cosmos 1821 Rocket 4.0 02:46:05 28° SSW 02:49:20 66° W 02:55:27 10° N
Cosmos 1461 4.4 02:50:01 18° W 02:51:36 24° NW 02:54:48 10° N
NOSS 3-2 (C) 3.9 02:50:32 23° WSW 02:53:30 45° NW 02:59:20 10° NNE
USA 267 3.3 02:51:10 10° NE 02:57:42 73° SE 03:02:00 23° SW
Meteor 1-27 4.3 02:53:12 10° NNW 02:58:57 64° W 03:02:59 20° S
AQUA 3.7 02:56:14 10° NNE 03:01:00 89° W 03:03:49 24° SSW
Cosmos 1844 Rocket 2.6 02:59:23 26° SSW 03:02:41 85° WNW 03:08:17 10° NNE
SAR-Lupe-4 4.3 03:00:02 10° NNE 03:03:29 47° E 03:05:42 20° SSE
Iridium 2 3.1 03:08:17 33° SSE 03:09:06 55° E 03:11:32 10° NNE
SL-24 DEB 4.1 03:05:11 10° N 03:09:44 76° W 03:12:47 21° SSW
ALOS 2.2 03:10:32 10° NNE 03:15:10 88° WNW 03:18:30 19° SSW
Cosmos 1892 Rocket 3.5 03:14:16 18° S 03:17:26 88° ESE 03:21:53 10° N
Cosmos 2058 Rocket 4.2 03:13:12 10° N 03:17:28 45° ENE 03:21:40 10° SSE
Cosmos 1680 Rocket 4.5 03:13:14 10° NW 03:17:33 27° W 03:19:38 21° SW
Cosmos 1818 4.3 03:14:42 10° NW 03:19:33 33° WSW 03:23:27 14° S
SL-16 R/B 2.5 03:14:22 10° S 03:20:37 75° WSW 03:26:53 10° NNW
Meteor 1-28 Rocket 3.1 03:18:30 21° S 03:20:37 55° W 03:24:07 10° NNW
SL-16 R/B 4.1 03:21:31 10° W 03:22:42 11° W 03:22:58 11° W
Delta 2 Rocket 3.8 03:21:47 22° WSW 03:23:47 37° S 03:27:46 10° ESE
Cosmos 2123 Rocket 4.0 03:21:23 10° N 03:27:35 85° W 03:33:47 10° S
Cosmos 1603 3.8 03:22:45 10° NNW 03:28:23 58° WSW 03:33:57 10° S
Cosmos 1934 Rocket 4.0 03:22:44 13° SSW 03:28:27 78° W 03:34:51 10° N
Cosmos 1437 Rocket 4.2 03:28:16 17° WSW 03:29:51 22° WNW 03:32:53 10° NNW
IDEFIX/ARIANE 42P 4.3 03:29:13 10° NNW 03:32:43 18° WNW 03:35:58 11° WSW
CZ-4 R/B 4.5 03:28:15 10° NNE 03:33:07 57° E 03:38:00 10° S
CZ-2C R/B 3.8 03:32:49 17° SW 03:35:17 23° W 03:39:28 10° NW
Cosmos 1943 4.1 03:33:31 10° NW 03:38:14 29° WSW 03:42:43 11° SSW
CZ-2C R/B 4.3 03:33:49 10° N 03:38:17 27° WNW 03:41:51 13° WSW
CZ-2D R/B 3.6 03:37:24 10° NNW 03:41:24 22° WNW 03:45:04 11° WSW
Cosmos 1544 2.5 03:39:11 12° S 03:41:29 63° E 03:44:05 10° NNE
SEDSat Delta rocket 4.1 03:41:26 16° SW 03:43:23 22° S 03:46:35 10° SE
Cosmos 1626 Rocket 4.3 03:40:11 10° S 03:44:30 54° E 03:48:49 10° NNE
SAR-Lupe-1 4.4 03:42:00 10° N 03:45:27 48° WNW 03:48:18 14° SW
Orbus 7S? 4.3 03:46:52 10° WNW 03:50:10 38° SW 03:56:28 10° SSE
Envisat 3.0 03:47:07 10° N 03:52:12 82° WNW 03:57:16 10° SSW
Cosmos 1048 Rocket 4.3 03:49:38 10° NNW 03:54:40 48° WSW 03:59:43 10° S
ASTEX 1 4.5 03:54:05 11° SW 03:57:50 26° W 04:01:56 10° NNW
Cosmos 1125 Rocket 3.9 03:57:13 11° SW 04:02:09 49° WNW 04:07:18 10° N
Cosmos 921 Rocket 4.2 04:00:54 10° NW 04:04:10 22° W 04:07:23 10° SSW
CZ-2C R/B 2.3 04:00:59 10° NNE 04:05:34 88° ESE 04:10:10 10° SSW
Cosmos 1271 Rocket 4.0 04:02:26 10° SSE 04:05:45 36° E 04:09:05 10° NNE
ADEOS II 3.8 04:04:31 10° NNW 04:08:05 19° WNW 04:11:38 10° WSW
NOSS 2-2 (E) 3.6 04:06:04 10° SSW 04:09:28 47° ESE 04:12:29 10° NE
Okean 1-7 Rocket 4.1 04:07:30 10° S 04:11:57 65° E 04:16:23 10° NNE
Lacrosse 5 4.3 04:09:23 10° SSE 04:12:08 15° ESE 04:14:52 10° E
Cosmos 2150 Rocket 4.1 04:08:51 10° SSW 04:14:01 71° WNW 04:19:19 10° NNE
Timation 2 Rocket 4.4 04:09:26 10° SW 04:15:55 53° WNW 04:22:11 10° NNE
Cosmos 1833 Rocket 4.1 04:10:48 10° NNW 04:16:13 45° ENE 04:21:36 10° SE
Cosmos 1238 Rocket 2.9 04:14:05 10° NNW 04:17:11 35° W 04:19:58 10° SSW
Cosmos-2242 3.0 04:15:50 10° N 04:20:10 87° W 04:24:27 10° S
Meteor 2-3 Rocket 3.9 04:15:28 10° S 04:21:15 89° E 04:27:05 10° N
